Port Elizabeth, South Africa

9:30 PM SAST on August 17, 2017 (GMT +0200)
Port Elizabeth

Weather History for FAPE - December, 2013

Change the Weather History Date:

Sunday, December 1, 2013

  Actual Average Record
Temperature  
Mean Temperature 60 °F -  
Max Temperature 71 °F 73 °F 77 °F (1999)
Min Temperature 48 °F 59 °F 48 °F (2013)
Degree Days  
Heating Degree Days 6    
Growing Degree Days 10 (Base 50)    
Moisture  
Dew Point 52 °F    
Average Humidity 65    
Maximum Humidity 88    
Minimum Humidity 42    
Precipitation  
Precipitation 0.00 in 0.04 in - ()
Sea Level Pressure  
Sea Level Pressure 30.18 in    
Wind  
Wind Speed 7 mph ()    
Max Wind Speed 16 mph    
Max Gust Speed -    
Visibility 7.7 miles    
Events      
Averages and records for this station are not official NWS values.
T = Trace of Precipitation, MM = Missing Value Source: Averaged Metar Reports

Daily Weather History Graph

Daily Weather History Graph

Search for Another Location

Airport or City:

Trip Planner

Search our weather history database for the weather conditions in past years. The results will help you decide how hot, cold, wet, or windy it might be!

Date:

Astronomy

Dec. 01, 2013 Rise Set
Actual Time 4:59 AM SAST 7:14 PM SAST
Civil Twilight 4:30 AM SAST 7:42 PM SAST
Nautical Twilight 3:55 AM SAST 8:17 PM SAST
Astronomical Twilight 3:18 AM SAST 8:55 PM SAST
Moon 3:37 AM SAST (12/1) 5:36 PM SAST (12/1)
Length of Visible Light 15h 11m
Length of Day
14h 14m
Waning Crescent, 4% of the Moon is Illuminated
Dec 1
Waning Crescent
Dec 3
New
Dec 9
First Quarter
Dec 17
Full
Dec 25
Last Quarter

Hourly Weather History & Observations

Time (SAST) Temp. Dew Point Humidity Pressure Visibility Wind Dir Wind Speed Gust Speed Precip Events Conditions
12:00 AM 57.2 °F 50.0 °F 77% 30.18 in 6.2 mi Variable 2.3 mph - N/A   Mostly Cloudy
1:00 AM 57.2 °F 51.8 °F 82% 30.18 in 6.2 mi SSE 3.5 mph - N/A   Mostly Cloudy
2:00 AM 58 °F 51 °F 72% 30.19 in 6 mi ESE 4.6 mph - -   Mostly Cloudy
2:00 AM 59.0 °F 51.8 °F 77% 30.18 in 6.2 mi ESE 4.6 mph - N/A   Mostly Cloudy
3:00 AM 55.4 °F 50.0 °F 82% 30.18 in 6.2 mi WSW 4.6 mph - N/A   Mostly Cloudy
4:00 AM 51.8 °F 46.4 °F 82% 30.18 in - West 4.6 mph - N/A   Clear
6:00 AM 53.6 °F 50.0 °F 88% 30.18 in 6.2 mi West 3.5 mph - N/A   Partly Cloudy
6:31 AM 57.2 °F 53.6 °F 88% 30.18 in 6.2 mi WSW 2.3 mph - N/A   Partly Cloudy
7:00 AM 64.4 °F 51.8 °F 64% 30.18 in 6.2 mi ESE 3.5 mph - N/A   Partly Cloudy
8:00 AM 66 °F 51 °F 48% 30.20 in 19 mi ENE 6.9 mph - -   Scattered Clouds
8:00 AM 64.4 °F 50.0 °F 59% 30.18 in 6.2 mi NE 8.1 mph - N/A   Partly Cloudy
9:00 AM 66.2 °F 50.0 °F 56% 30.18 in 6.2 mi NE 8.1 mph - N/A   Partly Cloudy
10:00 AM 68.0 °F 50.0 °F 52% 30.18 in 6.2 mi ENE 10.4 mph - N/A   Scattered Clouds
11:00 AM 68.0 °F 48.2 °F 49% 30.18 in 6.2 mi East 11.5 mph - N/A   Scattered Clouds
12:00 PM 69.8 °F 50.0 °F 49% 30.15 in 6.2 mi East 12.7 mph - N/A   Scattered Clouds
1:00 PM 69.8 °F 50.0 °F 49% 30.15 in 6.2 mi East 15.0 mph - N/A   Mostly Cloudy
2:00 PM 69 °F 51 °F 42% 30.17 in 19 mi East 15.0 mph - -   Mostly Cloudy
2:00 PM 69.8 °F 50.0 °F 49% 30.15 in 6.2 mi ESE 13.8 mph - N/A   Partly Cloudy
3:00 PM 69.8 °F 50.0 °F 49% 30.15 in 6.2 mi East 13.8 mph - N/A   Partly Cloudy
4:00 PM 69.8 °F 53.6 °F 56% 30.15 in 6.2 mi East 16.1 mph - N/A   Partly Cloudy
5:00 PM 68.0 °F 51.8 °F 56% 30.15 in 6.2 mi East 15.0 mph - N/A   Partly Cloudy
6:00 PM 66.2 °F 51.8 °F 60% 30.15 in 6.2 mi East 11.5 mph - N/A   Mostly Cloudy
7:00 PM 66.2 °F 55.4 °F 68% 30.18 in 6.2 mi East 9.2 mph - N/A   Mostly Cloudy
8:00 PM 65 °F 55 °F 62% 30.21 in 19 mi East 11.5 mph - -   Mostly Cloudy
8:00 PM 64.4 °F 55.4 °F 73% 30.21 in 6.2 mi East 9.2 mph - N/A   Mostly Cloudy
9:00 PM 64.4 °F 55.4 °F 73% 30.21 in 6.2 mi East 9.2 mph - N/A   Scattered Clouds
10:00 PM 64.4 °F 55.4 °F 73% 30.21 in 6.2 mi East 10.4 mph - N/A   Scattered Clouds
11:00 PM 64.4 °F 55.4 °F 73% 30.21 in - East 10.4 mph - N/A   Clear